User: anonymous
Location: Shades State Park
(39.9310°N, 87.0690°W)
Time: 11:56:57
(UTC-04:00)
Language:

H-2A R/B - Orbit

View from above orbital plane
View from above orbital plane
View from above satellite
View from above satellite

Ground track
Ground track

The orbit data is extracted from the following two-line orbital elements,

1 27601U 02056E   14262.12688259  .00000172  00000-0  78717-4 0  1834
2 27601 098.4778 342.5958 0072544 022.5570 066.5546 14.31411470614436
Epoch (UTC): 19 September 2014 03:02:42
Eccentricity: 0.0072544
inclination: 98.4778°
perigee height: 735 km
apogee height: 839 km
right ascension of ascending node: 342.5958°
argument of perigee: 22.5570°
revolutions per day: 14.31411470
mean anomaly at epoch: 66.5546°
orbit number at epoch: 61443

The dashed part of the orbit path shows where the satellite is in the earth's shadow,  

DLR